HKE746 VHHH-WMKP

Flight info

Callsign HKE746
Flight time 3h 12m
Altitude 32000
Route PECAN V12 EPDOS/N0461F340 L642 EPKAL/K0857F320 L642 SOSPA/K0854F350 L642 CN/K0852F340 M765 BITOD/N0460F340 M765 VKB W546 BETNU BETNU1F
Aircraft A321/M-SDE3FGHIRWY/LB1

Departure

Time 2026-04-26 05:00
Airport Hong Kong International Airport (VHHH)

Arrival

Time 2026-04-26 08:13
Airport Penang International Airport (WMKP)
Time Latitude Longitude Altitude Speed Heading
2026-04-26 03:53 22.30815 113.91765 37 ft 0 kts 70°
2026-04-26 04:44 22.30813 113.91760 37 ft 2 kts 70°
2026-04-26 04:44 22.30808 113.91743 37 ft 2 kts 69°
2026-04-26 04:44 22.30802 113.91727 37 ft 2 kts 68°
2026-04-26 04:45 22.30796 113.91710 37 ft 2 kts 66°
2026-04-26 04:45 22.30789 113.91694 37 ft 2 kts 63°
2026-04-26 04:45 22.30781 113.91678 37 ft 2 kts 53°
2026-04-26 04:45 22.30770 113.91665 37 ft 2 kts 14°
2026-04-26 04:46 22.30757 113.91665 37 ft 1 kts 339°
2026-04-26 04:46 22.30755 113.91665 37 ft 0 kts 339°
2026-04-26 04:48 22.30816 113.91640 37 ft 8 kts 341°
2026-04-26 04:48 22.30870 113.91622 37 ft 9 kts 342°
2026-04-26 04:48 22.30929 113.91601 37 ft 9 kts 341°
2026-04-26 04:49 22.30991 113.91578 37 ft 10 kts 341°
2026-04-26 04:49 22.31074 113.91547 36 ft 15 kts 341°
2026-04-26 04:49 22.31187 113.91503 37 ft 19 kts 341°
2026-04-26 04:49 22.31310 113.91457 36 ft 18 kts 341°
2026-04-26 04:50 22.31410 113.91406 37 ft 12 kts 297°
2026-04-26 04:50 22.31404 113.91324 38 ft 11 kts 252°
2026-04-26 04:50 22.31373 113.91226 38 ft 19 kts 251°
2026-04-26 04:50 22.31330 113.91080 37 ft 21 kts 253°
2026-04-26 04:51 22.31287 113.90932 37 ft 21 kts 246°
2026-04-26 04:51 22.31232 113.90789 37 ft 21 kts 249°
2026-04-26 04:51 22.31184 113.90644 36 ft 20 kts 251°
2026-04-26 04:51 22.31137 113.90499 35 ft 20 kts 250°
2026-04-26 04:52 22.31090 113.90355 36 ft 20 kts 251°
2026-04-26 04:52 22.31042 113.90211 36 ft 20 kts 250°
2026-04-26 04:52 22.30998 113.90069 37 ft 20 kts 251°
2026-04-26 04:52 22.30963 113.89958 37 ft 10 kts 251°
2026-04-26 04:53 22.30981 113.89898 37 ft 9 kts 327°
2026-04-26 04:53 22.31042 113.89870 37 ft 10 kts 340°
2026-04-26 04:53 22.31106 113.89869 36 ft 8 kts 33°
2026-04-26 04:53 22.31136 113.89922 35 ft 8 kts 71°
2026-04-26 04:54 22.31142 113.89943 37 ft 0 kts 72°
2026-04-26 04:54 22.31143 113.89945 37 ft 0 kts 72°
2026-04-26 04:54 22.31150 113.89968 37 ft 11 kts 72°
2026-04-26 04:54 22.31193 113.90104 36 ft 24 kts 71°
2026-04-26 04:55 22.31252 113.90289 35 ft 20 kts 71°
2026-04-26 04:55 22.31242 113.90375 35 ft 12 kts 137°
2026-04-26 04:55 22.31168 113.90405 36 ft 11 kts 162°
2026-04-26 04:55 22.31130 113.90465 36 ft 13 kts 86°
2026-04-26 04:56 22.31172 113.90609 35 ft 27 kts 71°
2026-04-26 04:56 22.31238 113.90812 37 ft 28 kts 70°
2026-04-26 04:56 22.31301 113.91010 35 ft 28 kts 71°
2026-04-26 04:56 22.31364 113.91202 38 ft 27 kts 70°
2026-04-26 04:57 22.31427 113.91389 38 ft 26 kts 72°
2026-04-26 04:57 22.31486 113.91576 37 ft 26 kts 70°
2026-04-26 04:57 22.31545 113.91761 34 ft 26 kts 71°
2026-04-26 04:57 22.31604 113.91945 35 ft 26 kts 70°
2026-04-26 04:58 22.31662 113.92125 36 ft 25 kts 71°
2026-04-26 04:58 22.31720 113.92302 35 ft 25 kts 71°
2026-04-26 04:58 22.31776 113.92477 37 ft 24 kts 71°
2026-04-26 04:58 22.31831 113.92646 37 ft 23 kts 70°
2026-04-26 04:59 22.31881 113.92772 35 ft 13 kts 44°
2026-04-26 04:59 22.31969 113.92766 36 ft 14 kts 341°
2026-04-26 04:59 22.32029 113.92700 36 ft 13 kts 269°
2026-04-26 04:59 22.31995 113.92585 36 ft 24 kts 251°
2026-04-26 05:00 22.31884 113.92239 38 ft 81 kts 251°
2026-04-26 05:00 22.31630 113.91455 36 ft 138 kts 250°
2026-04-26 05:00 22.31262 113.90313 57 ft 180 kts 251°
2026-04-26 05:00 22.30864 113.89043 748 ft 176 kts 251°
2026-04-26 05:01 22.30464 113.87797 1439 ft 176 kts 251°
2026-04-26 05:01 22.30051 113.86523 1924 ft 185 kts 251°
2026-04-26 05:01 22.29598 113.85137 2056 ft 205 kts 251°
2026-04-26 05:01 22.29114 113.83654 2410 ft 212 kts 252°
2026-04-26 05:02 22.28589 113.82145 2768 ft 221 kts 244°
2026-04-26 05:02 22.27511 113.80892 2909 ft 241 kts 209°
2026-04-26 05:02 22.25916 113.80199 3290 ft 251 kts 199°
2026-04-26 05:02 22.24259 113.79565 3928 ft 254 kts 198°
2026-04-26 05:03 22.22566 113.78965 4432 ft 263 kts 189°
2026-04-26 05:03 22.20725 113.79043 4844 ft 271 kts 161°
2026-04-26 05:03 22.19079 113.80032 5391 ft 275 kts 140°
2026-04-26 05:03 22.17570 113.81364 6018 ft 278 kts 140°
2026-04-26 05:04 22.16067 113.82698 6625 ft 282 kts 140°
2026-04-26 05:04 22.14547 113.84050 7203 ft 285 kts 140°
2026-04-26 05:04 22.13002 113.85420 7781 ft 289 kts 140°
2026-04-26 05:04 22.11439 113.86804 8372 ft 293 kts 140°
2026-04-26 05:05 22.09852 113.88209 8963 ft 296 kts 141°
2026-04-26 05:05 22.08256 113.89620 9495 ft 298 kts 141°
2026-04-26 05:05 22.06640 113.91048 10008 ft 302 kts 141°
2026-04-26 05:05 22.04978 113.92513 10230 ft 317 kts 141°
2026-04-26 05:06 22.03231 113.94058 10389 ft 333 kts 140°
2026-04-26 05:06 22.01417 113.95718 10529 ft 350 kts 139°
2026-04-26 05:06 21.99540 113.97473 10659 ft 364 kts 139°
2026-04-26 05:06 21.98266 113.98674 10895 ft 369 kts 139°
2026-04-26 05:07 21.95656 114.01122 11494 ft 375 kts 141°
2026-04-26 05:07 21.93474 114.02690 11916 ft 380 kts 153°
2026-04-26 05:07 21.91015 114.03749 12343 ft 383 kts 165°
2026-04-26 05:07 21.89289 114.04146 12649 ft 384 kts 171°
2026-04-26 05:08 21.86653 114.04629 13162 ft 385 kts 171°
2026-04-26 05:08 21.83968 114.05132 13679 ft 387 kts 171°
2026-04-26 05:08 21.81334 114.05586 14162 ft 389 kts 176°
2026-04-26 05:08 21.78596 114.05539 14645 ft 390 kts 184°
2026-04-26 05:09 21.75879 114.05375 15121 ft 392 kts 184°
2026-04-26 05:09 21.73147 114.05197 15596 ft 394 kts 184°
2026-04-26 05:09 21.70412 114.05014 16068 ft 395 kts 184°
2026-04-26 05:09 21.67658 114.04829 16529 ft 397 kts 184°
2026-04-26 05:10 21.64895 114.04647 16995 ft 399 kts 184°
2026-04-26 05:10 21.62116 114.04469 17457 ft 401 kts 184°
2026-04-26 05:10 21.59328 114.04294 17906 ft 402 kts 183°
2026-04-26 05:10 21.56529 114.04120 18337 ft 404 kts 183°
2026-04-26 05:11 21.53714 114.03943 18754 ft 406 kts 184°
2026-04-26 05:11 21.50884 114.03766 19150 ft 409 kts 184°
2026-04-26 05:11 21.48031 114.03585 19543 ft 412 kts 184°
2026-04-26 05:11 21.45159 114.03403 19917 ft 415 kts 184°
2026-04-26 05:12 21.42261 114.03219 20297 ft 418 kts 184°
2026-04-26 05:12 21.39347 114.03033 20642 ft 421 kts 185°
2026-04-26 05:12 21.36416 114.02847 20993 ft 423 kts 185°
2026-04-26 05:12 21.33467 114.02659 21332 ft 426 kts 185°
2026-04-26 05:13 21.30502 114.02469 21674 ft 428 kts 185°
2026-04-26 05:13 21.27517 114.02279 21994 ft 431 kts 185°
2026-04-26 05:13 21.24519 114.02087 22297 ft 433 kts 185°
2026-04-26 05:13 21.21498 114.01896 22598 ft 436 kts 185°
2026-04-26 05:14 21.18461 114.01706 22888 ft 438 kts 185°
2026-04-26 05:14 21.15414 114.01513 23186 ft 440 kts 185°
2026-04-26 05:14 21.12348 114.01317 23470 ft 443 kts 186°
2026-04-26 05:14 21.09270 114.01119 23746 ft 444 kts 185°
2026-04-26 05:15 21.06172 114.00920 24029 ft 447 kts 186°
2026-04-26 05:15 21.03065 114.00723 24292 ft 448 kts 185°
2026-04-26 05:15 20.99947 114.00526 24557 ft 450 kts 186°
2026-04-26 05:15 20.96811 114.00328 24817 ft 452 kts 186°
2026-04-26 05:16 20.93626 114.00047 25083 ft 452 kts 191°
2026-04-26 05:16 20.90547 113.99384 25337 ft 452 kts 195°
2026-04-26 05:16 20.87470 113.98663 25606 ft 453 kts 194°
2026-04-26 05:16 20.84383 113.97943 25867 ft 455 kts 194°
2026-04-26 05:17 20.81285 113.97224 26115 ft 456 kts 194°
2026-04-26 05:17 20.78177 113.96505 26361 ft 458 kts 195°
2026-04-26 05:17 20.75057 113.95780 26617 ft 459 kts 195°
2026-04-26 05:17 20.71931 113.95052 26864 ft 461 kts 195°
2026-04-26 05:18 20.68791 113.94324 27083 ft 462 kts 195°
2026-04-26 05:18 20.65646 113.93596 27314 ft 464 kts 195°
2026-04-26 05:18 20.62492 113.92862 27543 ft 464 kts 195°
2026-04-26 05:18 20.59330 113.92125 27756 ft 465 kts 195°
2026-04-26 05:19 20.56159 113.91386 27962 ft 467 kts 195°
2026-04-26 05:19 20.52982 113.90647 28179 ft 468 kts 195°
2026-04-26 05:19 20.49796 113.89908 28402 ft 469 kts 195°
2026-04-26 05:19 20.46599 113.89167 28617 ft 471 kts 195°
2026-04-26 05:20 20.43395 113.88422 28825 ft 472 kts 195°
2026-04-26 05:20 20.40184 113.87677 29041 ft 473 kts 195°
2026-04-26 05:20 20.36959 113.86931 29273 ft 474 kts 196°
2026-04-26 05:20 20.33734 113.86189 29542 ft 474 kts 195°
2026-04-26 05:21 20.30513 113.85449 29856 ft 473 kts 196°
2026-04-26 05:21 20.27305 113.84706 30174 ft 471 kts 196°
2026-04-26 05:21 20.24106 113.83962 30480 ft 470 kts 197°
2026-04-26 05:21 20.20921 113.83220 30792 ft 468 kts 197°
2026-04-26 05:22 20.17744 113.82481 31096 ft 466 kts 197°
2026-04-26 05:22 20.14575 113.81751 31401 ft 465 kts 197°
2026-04-26 05:22 20.11422 113.81029 31710 ft 463 kts 197°
2026-04-26 05:22 20.08278 113.80307 31954 ft 462 kts 198°
2026-04-26 05:23 20.02014 113.78868 32008 ft 454 kts 198°
2026-04-26 05:23 19.95861 113.77447 32008 ft 452 kts 198°
2026-04-26 05:24 19.89715 113.76023 32008 ft 452 kts 198°
2026-04-26 05:24 19.83562 113.74608 32008 ft 452 kts 198°
2026-04-26 05:25 19.77405 113.73203 32009 ft 453 kts 198°
2026-04-26 05:25 19.71249 113.71788 32013 ft 453 kts 198°
2026-04-26 05:26 19.65092 113.70377 32018 ft 452 kts 198°
2026-04-26 05:26 19.58942 113.68962 32022 ft 452 kts 198°
2026-04-26 05:27 19.52791 113.67547 32022 ft 452 kts 198°
2026-04-26 05:27 19.46643 113.66137 32021 ft 452 kts 198°
2026-04-26 05:28 19.40495 113.64733 32017 ft 452 kts 198°
2026-04-26 05:28 19.34333 113.63332 32015 ft 453 kts 198°
2026-04-26 05:29 19.28179 113.61931 32015 ft 452 kts 198°
2026-04-26 05:29 19.22032 113.60529 32013 ft 452 kts 198°
2026-04-26 05:30 19.15889 113.59124 32010 ft 452 kts 198°
2026-04-26 05:30 19.09754 113.57714 32008 ft 451 kts 198°
2026-04-26 05:31 19.03577 113.56310 32004 ft 451 kts 198°
2026-04-26 05:31 18.97417 113.54999 32002 ft 453 kts 195°
2026-04-26 05:32 18.91158 113.54084 32004 ft 455 kts 192°
2026-04-26 05:32 18.84873 113.53316 32004 ft 455 kts 192°
2026-04-26 05:33 18.78606 113.52475 32003 ft 454 kts 193°
2026-04-26 05:33 18.72351 113.51564 32003 ft 454 kts 193°
2026-04-26 05:34 18.66095 113.50656 32006 ft 454 kts 193°
2026-04-26 05:34 18.59845 113.49747 32008 ft 452 kts 195°
2026-04-26 05:35 18.54011 113.47642 32010 ft 438 kts 213°
2026-04-26 05:35 18.49027 113.44054 32007 ft 433 kts 220°
2026-04-26 05:36 18.44170 113.40301 32005 ft 433 kts 220°
2026-04-26 05:36 18.39314 113.36555 32003 ft 432 kts 220°
2026-04-26 05:37 18.34464 113.32809 31999 ft 432 kts 220°
2026-04-26 05:37 18.29606 113.29068 31999 ft 433 kts 220°
2026-04-26 05:38 18.24740 113.25333 31998 ft 433 kts 220°
2026-04-26 05:38 18.19844 113.21571 31991 ft 433 kts 220°
2026-04-26 05:39 18.15803 113.18465 31989 ft 433 kts 220°
2026-04-26 05:39 18.10942 113.14736 31984 ft 433 kts 220°
2026-04-26 05:40 18.06077 113.11008 31990 ft 432 kts 220°
2026-04-26 05:40 18.01218 113.07278 31981 ft 433 kts 220°
2026-04-26 05:41 17.96356 113.03549 31981 ft 433 kts 220°
2026-04-26 05:41 17.91495 112.99827 31976 ft 433 kts 220°
2026-04-26 05:42 17.86616 112.96098 31976 ft 433 kts 220°
2026-04-26 05:42 17.81765 112.92344 31976 ft 433 kts 221°
2026-04-26 05:43 17.76953 112.88543 31976 ft 434 kts 221°
2026-04-26 05:43 17.72133 112.84732 31973 ft 434 kts 221°
2026-04-26 05:44 17.67271 112.80899 31980 ft 434 kts 221°
2026-04-26 05:44 17.62438 112.77107 31982 ft 434 kts 221°
2026-04-26 05:45 17.57601 112.73313 31977 ft 434 kts 221°
2026-04-26 05:45 17.52768 112.69525 31978 ft 434 kts 221°
2026-04-26 05:46 17.47930 112.65740 31975 ft 434 kts 221°
2026-04-26 05:46 17.43093 112.61957 31975 ft 434 kts 221°
2026-04-26 05:47 17.38259 112.58176 31973 ft 434 kts 221°
2026-04-26 05:47 17.33421 112.54397 31971 ft 434 kts 221°
2026-04-26 05:48 17.28580 112.50615 31976 ft 434 kts 221°
2026-04-26 05:48 17.23737 112.46831 31976 ft 434 kts 221°
2026-04-26 05:49 17.16465 112.41161 31976 ft 435 kts 220°
2026-04-26 05:50 17.11612 112.37376 31976 ft 435 kts 220°
2026-04-26 05:50 17.06755 112.33592 31973 ft 436 kts 220°
2026-04-26 05:51 17.01892 112.29806 31980 ft 436 kts 220°
2026-04-26 05:51 16.97015 112.26034 31977 ft 436 kts 220°
2026-04-26 05:52 16.92103 112.22311 31980 ft 437 kts 219°
2026-04-26 05:52 16.87170 112.18597 31980 ft 437 kts 219°
2026-04-26 05:53 16.82216 112.14855 31982 ft 437 kts 219°
2026-04-26 05:53 16.77293 112.11127 31976 ft 437 kts 219°
2026-04-26 05:54 16.72363 112.07397 31974 ft 437 kts 219°
2026-04-26 05:54 16.67406 112.03635 32185 ft 443 kts 219°
2026-04-26 05:54 16.64911 112.01748 32399 ft 444 kts 219°
2026-04-26 05:55 16.62409 111.99862 32649 ft 443 kts 219°
2026-04-26 05:55 16.59912 111.97980 32910 ft 442 kts 219°
2026-04-26 05:55 16.57420 111.96103 33144 ft 442 kts 219°
2026-04-26 05:55 16.54931 111.94223 33384 ft 441 kts 219°
2026-04-26 05:56 16.52450 111.92347 33615 ft 441 kts 219°
2026-04-26 05:56 16.49969 111.90473 33845 ft 441 kts 219°
2026-04-26 05:56 16.47486 111.88597 33947 ft 440 kts 219°
2026-04-26 05:57 16.42524 111.84856 33963 ft 440 kts 219°
2026-04-26 05:57 16.37567 111.81125 33963 ft 440 kts 219°
2026-04-26 05:58 16.32607 111.77391 33964 ft 440 kts 219°
2026-04-26 05:58 16.27653 111.73659 33964 ft 440 kts 219°
2026-04-26 05:59 16.22698 111.69932 33966 ft 440 kts 219°
2026-04-26 05:59 16.17733 111.66206 33966 ft 440 kts 219°
2026-04-26 06:00 16.12768 111.62477 33971 ft 440 kts 219°
2026-04-26 06:00 16.07769 111.58729 33968 ft 440 kts 219°
2026-04-26 06:01 16.02795 111.55004 33968 ft 440 kts 219°
2026-04-26 06:01 15.97833 111.51275 33972 ft 440 kts 219°
2026-04-26 06:02 15.92860 111.47545 33972 ft 441 kts 219°
2026-04-26 06:02 15.87876 111.43820 33973 ft 441 kts 219°
2026-04-26 06:03 15.82890 111.40097 33972 ft 442 kts 219°
2026-04-26 06:03 15.77895 111.36359 33975 ft 443 kts 219°
2026-04-26 06:04 15.72901 111.32618 33977 ft 443 kts 219°
2026-04-26 06:04 15.67901 111.28880 33974 ft 443 kts 219°
2026-04-26 06:05 15.62888 111.25144 33966 ft 444 kts 218°
2026-04-26 06:05 15.57879 111.21409 33963 ft 444 kts 219°
2026-04-26 06:06 15.52860 111.17675 33963 ft 444 kts 218°
2026-04-26 06:06 15.47841 111.13940 33960 ft 444 kts 218°
2026-04-26 06:07 15.42817 111.10201 33959 ft 445 kts 219°
2026-04-26 06:07 15.37794 111.06457 33963 ft 445 kts 219°
2026-04-26 06:08 15.32740 111.02679 33961 ft 445 kts 219°
2026-04-26 06:08 15.27755 110.98882 33958 ft 445 kts 219°
2026-04-26 06:09 15.22766 110.95075 33960 ft 446 kts 219°
2026-04-26 06:09 15.17767 110.91273 33961 ft 446 kts 219°
2026-04-26 06:10 15.12771 110.87473 33962 ft 446 kts 219°
2026-04-26 06:10 15.07766 110.83689 33964 ft 445 kts 219°
2026-04-26 06:11 15.02772 110.79913 33968 ft 444 kts 219°
2026-04-26 06:11 14.97791 110.76136 33954 ft 444 kts 219°
2026-04-26 06:12 14.92810 110.72363 33953 ft 444 kts 219°
2026-04-26 06:12 14.87828 110.68589 33940 ft 444 kts 219°
2026-04-26 06:13 14.82850 110.64815 33936 ft 444 kts 219°
2026-04-26 06:13 14.78673 110.61661 33936 ft 445 kts 219°
2026-04-26 06:14 14.72860 110.57277 33939 ft 445 kts 219°
2026-04-26 06:14 14.68670 110.54115 33936 ft 445 kts 219°
2026-04-26 06:15 14.63667 110.50343 33935 ft 445 kts 219°
2026-04-26 06:15 14.58668 110.46572 33931 ft 445 kts 218°
2026-04-26 06:16 14.53665 110.42810 33929 ft 445 kts 219°
2026-04-26 06:16 14.48656 110.39034 33926 ft 446 kts 219°
2026-04-26 06:17 14.43637 110.35249 33929 ft 447 kts 219°
2026-04-26 06:17 14.38615 110.31465 33934 ft 447 kts 219°
2026-04-26 06:18 14.33581 110.27683 33936 ft 448 kts 219°
2026-04-26 06:18 14.28540 110.23899 33937 ft 448 kts 218°
2026-04-26 06:19 14.23495 110.20121 33936 ft 449 kts 218°
2026-04-26 06:19 14.18412 110.16301 33938 ft 449 kts 219°
2026-04-26 06:20 14.13370 110.12505 33938 ft 449 kts 219°
2026-04-26 06:20 14.08317 110.08714 33951 ft 449 kts 218°
2026-04-26 06:21 14.03253 110.04930 33944 ft 449 kts 218°
2026-04-26 06:21 13.98192 110.01151 33953 ft 450 kts 218°
2026-04-26 06:22 13.93033 109.97486 33941 ft 451 kts 215°
2026-04-26 06:22 13.87683 109.94099 33939 ft 452 kts 213°
2026-04-26 06:23 13.82302 109.90758 33937 ft 451 kts 214°
2026-04-26 06:23 13.76971 109.87358 33937 ft 451 kts 215°
2026-04-26 06:24 13.71664 109.83924 33934 ft 451 kts 215°
2026-04-26 06:24 13.66338 109.80493 33936 ft 452 kts 214°
2026-04-26 06:25 13.61004 109.77070 33935 ft 452 kts 214°
2026-04-26 06:25 13.55668 109.73648 33934 ft 452 kts 214°
2026-04-26 06:26 13.50331 109.70226 33933 ft 453 kts 214°
2026-04-26 06:26 13.44983 109.66796 33933 ft 453 kts 214°
2026-04-26 06:27 13.39635 109.63371 33931 ft 454 kts 214°
2026-04-26 06:27 13.34275 109.59938 33935 ft 454 kts 214°
2026-04-26 06:28 13.28875 109.56484 33933 ft 455 kts 214°
2026-04-26 06:28 13.23500 109.53047 33935 ft 455 kts 214°
2026-04-26 06:29 13.18114 109.49610 33936 ft 456 kts 214°
2026-04-26 06:29 13.12734 109.46176 33935 ft 456 kts 214°
2026-04-26 06:30 13.07348 109.42727 33936 ft 457 kts 214°
2026-04-26 06:30 13.01957 109.39274 33936 ft 457 kts 214°
2026-04-26 06:31 12.96543 109.35822 33949 ft 458 kts 214°
2026-04-26 06:31 12.91130 109.32380 33936 ft 458 kts 214°
2026-04-26 06:32 12.85718 109.28938 33950 ft 459 kts 214°
2026-04-26 06:32 12.80295 109.25481 33946 ft 459 kts 214°
2026-04-26 06:33 12.74873 109.22025 33943 ft 459 kts 214°
2026-04-26 06:33 12.69443 109.18572 33936 ft 460 kts 214°
2026-04-26 06:34 12.64009 109.15118 33931 ft 459 kts 214°
2026-04-26 06:34 12.58585 109.11671 33929 ft 459 kts 214°
2026-04-26 06:35 12.53152 109.08227 33930 ft 459 kts 214°
2026-04-26 06:35 12.47720 109.04784 33929 ft 459 kts 214°
2026-04-26 06:36 12.42247 109.01311 33929 ft 459 kts 214°
2026-04-26 06:36 12.36820 108.97862 33928 ft 459 kts 214°
2026-04-26 06:37 12.31389 108.94423 33925 ft 459 kts 214°
2026-04-26 06:37 12.25956 108.90989 33924 ft 459 kts 214°
2026-04-26 06:38 12.20523 108.87550 33926 ft 460 kts 214°
2026-04-26 06:38 12.15092 108.84107 33927 ft 459 kts 214°
2026-04-26 06:39 12.09653 108.80670 33926 ft 459 kts 214°
2026-04-26 06:39 12.04216 108.77243 33924 ft 459 kts 213°
2026-04-26 06:40 11.98786 108.73813 33925 ft 459 kts 214°
2026-04-26 06:40 11.93352 108.70376 33916 ft 460 kts 213°
2026-04-26 06:41 11.87909 108.66935 33911 ft 460 kts 213°
2026-04-26 06:41 11.82454 108.63501 33914 ft 461 kts 213°
2026-04-26 06:42 11.76988 108.60059 33916 ft 461 kts 213°
2026-04-26 06:42 11.71524 108.56615 33920 ft 461 kts 213°
2026-04-26 06:43 11.66062 108.53176 33921 ft 462 kts 213°
2026-04-26 06:43 11.60557 108.49713 33922 ft 462 kts 213°
2026-04-26 06:44 11.55091 108.46267 33922 ft 462 kts 213°
2026-04-26 06:44 11.49618 108.42826 33919 ft 462 kts 213°
2026-04-26 06:45 11.44145 108.39396 33917 ft 462 kts 213°
2026-04-26 06:45 11.38676 108.35963 33912 ft 462 kts 213°
2026-04-26 06:46 11.34128 108.33102 33910 ft 462 kts 213°
2026-04-26 06:46 11.28651 108.29662 33906 ft 463 kts 213°
2026-04-26 06:47 11.23166 108.26218 33909 ft 463 kts 213°
2026-04-26 06:47 11.17674 108.22781 33903 ft 463 kts 213°
2026-04-26 06:48 11.12185 108.19341 33899 ft 464 kts 213°
2026-04-26 06:48 11.06689 108.15897 33901 ft 464 kts 213°
2026-04-26 06:49 11.01191 108.12450 33894 ft 464 kts 213°
2026-04-26 06:49 10.95650 108.08979 33885 ft 465 kts 213°
2026-04-26 06:50 10.90153 108.05511 33885 ft 465 kts 214°
2026-04-26 06:50 10.84739 108.01913 33881 ft 465 kts 215°
2026-04-26 06:51 10.79352 107.98273 33876 ft 465 kts 215°
2026-04-26 06:51 10.71232 107.92856 33872 ft 465 kts 214°
2026-04-26 06:52 10.65807 107.89262 33867 ft 466 kts 214°
2026-04-26 06:52 10.60374 107.85661 33865 ft 466 kts 214°
2026-04-26 06:53 10.54938 107.82064 33865 ft 466 kts 214°
2026-04-26 06:53 10.49508 107.78469 33860 ft 466 kts 214°
2026-04-26 06:54 10.44071 107.74868 33861 ft 467 kts 214°
2026-04-26 06:54 10.38629 107.71278 33862 ft 467 kts 214°
2026-04-26 06:55 10.33178 107.67692 33863 ft 467 kts 214°
2026-04-26 06:55 10.27720 107.64100 33865 ft 467 kts 214°
2026-04-26 06:56 10.22268 107.60504 33865 ft 467 kts 214°
2026-04-26 06:56 10.16777 107.56885 33863 ft 468 kts 214°
2026-04-26 06:57 10.11320 107.53294 33862 ft 468 kts 214°
2026-04-26 06:57 10.05865 107.49697 33864 ft 468 kts 214°
2026-04-26 06:58 10.00397 107.46093 33869 ft 469 kts 214°
2026-04-26 06:58 9.94924 107.42487 33868 ft 469 kts 214°
2026-04-26 06:59 9.89452 107.38877 33865 ft 469 kts 214°
2026-04-26 06:59 9.83986 107.35269 33865 ft 469 kts 214°
2026-04-26 07:00 9.78509 107.31656 33865 ft 470 kts 214°
2026-04-26 07:00 9.73027 107.28057 33865 ft 470 kts 214°
2026-04-26 07:01 9.67545 107.24461 33864 ft 469 kts 214°
2026-04-26 07:01 9.62064 107.20854 33863 ft 469 kts 214°
2026-04-26 07:02 9.56596 107.17253 33862 ft 469 kts 214°
2026-04-26 07:02 9.51116 107.13649 33862 ft 470 kts 214°
2026-04-26 07:03 9.45631 107.10045 33865 ft 470 kts 214°
2026-04-26 07:03 9.40146 107.06443 33865 ft 470 kts 214°
2026-04-26 07:04 9.34647 107.02842 33869 ft 470 kts 214°
2026-04-26 07:04 9.29121 106.99206 33880 ft 470 kts 214°
2026-04-26 07:05 9.23635 106.95605 33883 ft 470 kts 214°
2026-04-26 07:05 9.18136 106.92006 33885 ft 471 kts 214°
2026-04-26 07:06 9.12648 106.88406 33896 ft 470 kts 214°
2026-04-26 07:06 9.07150 106.84805 33888 ft 471 kts 214°
2026-04-26 07:07 9.01651 106.81209 33884 ft 471 kts 214°
2026-04-26 07:07 8.96149 106.77615 33885 ft 470 kts 214°
2026-04-26 07:08 8.90657 106.74023 33886 ft 470 kts 214°
2026-04-26 07:08 8.85163 106.70424 33892 ft 470 kts 214°
2026-04-26 07:09 8.79669 106.66828 33886 ft 470 kts 214°
2026-04-26 07:09 8.74376 106.62973 33881 ft 468 kts 225°
2026-04-26 07:10 8.68810 106.54979 33874 ft 464 kts 241°
2026-04-26 07:11 8.65522 106.49355 33874 ft 465 kts 240°
2026-04-26 07:11 8.62198 106.43686 33878 ft 465 kts 240°
2026-04-26 07:12 8.58901 106.38057 33876 ft 466 kts 240°
2026-04-26 07:12 8.55598 106.32426 33875 ft 466 kts 240°
2026-04-26 07:13 8.52301 106.26783 33878 ft 467 kts 240°
2026-04-26 07:13 8.49004 106.21136 33881 ft 467 kts 240°
2026-04-26 07:14 8.45707 106.15490 33878 ft 467 kts 240°
2026-04-26 07:14 8.42398 106.09844 33883 ft 467 kts 240°
2026-04-26 07:15 8.39092 106.04198 33881 ft 467 kts 240°
2026-04-26 07:15 8.35790 105.98548 33881 ft 467 kts 240°
2026-04-26 07:16 8.32477 105.92908 33885 ft 467 kts 240°
2026-04-26 07:16 8.29158 105.87277 33882 ft 467 kts 240°
2026-04-26 07:17 8.25842 105.81637 33877 ft 467 kts 240°
2026-04-26 07:17 8.22534 105.76002 33875 ft 466 kts 240°
2026-04-26 07:18 8.19228 105.70368 33881 ft 467 kts 240°
2026-04-26 07:18 8.15919 105.64732 33888 ft 467 kts 240°
2026-04-26 07:19 8.12596 105.59094 33889 ft 467 kts 240°
2026-04-26 07:19 8.09809 105.54373 33890 ft 467 kts 240°
2026-04-26 07:20 8.06494 105.48734 33892 ft 467 kts 240°
2026-04-26 07:20 8.03172 105.43096 33887 ft 467 kts 240°
2026-04-26 07:21 7.99859 105.37460 33890 ft 467 kts 240°
2026-04-26 07:21 7.96545 105.31823 33890 ft 467 kts 240°
2026-04-26 07:22 7.93233 105.26190 33894 ft 467 kts 240°
2026-04-26 07:22 7.89918 105.20551 33895 ft 467 kts 240°
2026-04-26 07:23 7.86605 105.14924 33894 ft 467 kts 240°
2026-04-26 07:23 7.83278 105.09293 33890 ft 467 kts 240°
2026-04-26 07:24 7.79958 105.03670 33888 ft 467 kts 240°
2026-04-26 07:24 7.76647 104.98042 33894 ft 466 kts 240°
2026-04-26 07:25 7.73310 104.92379 33890 ft 467 kts 240°
2026-04-26 07:25 7.69985 104.86760 33890 ft 466 kts 240°
2026-04-26 07:26 7.66666 104.81139 33883 ft 467 kts 240°
2026-04-26 07:26 7.63355 104.75519 33886 ft 466 kts 240°
2026-04-26 07:27 7.60039 104.69906 33885 ft 466 kts 240°
2026-04-26 07:27 7.56715 104.64289 33890 ft 467 kts 240°
2026-04-26 07:28 7.53400 104.58668 33885 ft 467 kts 240°
2026-04-26 07:28 7.50083 104.53048 33885 ft 467 kts 240°
2026-04-26 07:29 7.46756 104.47426 33889 ft 467 kts 240°
2026-04-26 07:29 7.43429 104.41812 33891 ft 467 kts 240°
2026-04-26 07:30 7.40095 104.36202 33886 ft 467 kts 240°
2026-04-26 07:30 7.36779 104.30583 33885 ft 466 kts 240°
2026-04-26 07:31 7.33462 104.24981 33886 ft 466 kts 240°
2026-04-26 07:31 7.30138 104.19375 33893 ft 466 kts 240°
2026-04-26 07:32 7.26817 104.13766 33886 ft 466 kts 240°
2026-04-26 07:32 7.23467 104.08130 33890 ft 466 kts 239°
2026-04-26 07:33 7.20120 104.02551 33885 ft 465 kts 239°
2026-04-26 07:33 7.16771 103.96983 33885 ft 465 kts 239°
2026-04-26 07:34 7.13424 103.91412 33883 ft 465 kts 239°
2026-04-26 07:34 7.10085 103.85837 33882 ft 464 kts 239°
2026-04-26 07:35 7.06746 103.80274 33883 ft 465 kts 240°
2026-04-26 07:35 7.03412 103.74701 33885 ft 465 kts 240°
2026-04-26 07:36 7.00067 103.69136 33884 ft 464 kts 240°
2026-04-26 07:36 6.96721 103.63575 33886 ft 464 kts 240°
2026-04-26 07:37 6.93362 103.58026 33889 ft 464 kts 237°
2026-04-26 07:37 6.89341 103.52940 33881 ft 464 kts 231°
2026-04-26 07:38 6.85246 103.47918 33881 ft 464 kts 231°
2026-04-26 07:38 6.81132 103.42910 33881 ft 464 kts 231°
2026-04-26 07:39 6.77027 103.37904 33874 ft 464 kts 231°
2026-04-26 07:39 6.72926 103.32888 33870 ft 464 kts 231°
2026-04-26 07:40 6.68829 103.27879 33865 ft 463 kts 231°
2026-04-26 07:40 6.64706 103.22842 33868 ft 463 kts 232°
2026-04-26 07:41 6.60616 103.17834 33871 ft 463 kts 232°
2026-04-26 07:41 6.56522 103.12828 33872 ft 464 kts 231°
2026-04-26 07:42 6.52420 103.07823 33875 ft 464 kts 231°
2026-04-26 07:42 6.48313 103.02813 33880 ft 464 kts 231°
2026-04-26 07:43 6.44211 102.97807 33887 ft 464 kts 231°
2026-04-26 07:43 6.40111 102.92795 33881 ft 464 kts 231°
2026-04-26 07:44 6.36007 102.87794 33885 ft 463 kts 231°
2026-04-26 07:44 6.31910 102.82806 33877 ft 463 kts 231°
2026-04-26 07:45 6.27809 102.77810 33877 ft 463 kts 231°
2026-04-26 07:45 6.23706 102.72810 33878 ft 464 kts 231°
2026-04-26 07:46 6.19721 102.67951 33876 ft 463 kts 231°
2026-04-26 07:46 6.15624 102.62951 33875 ft 463 kts 232°
2026-04-26 07:47 6.11517 102.57954 33875 ft 463 kts 231°
2026-04-26 07:47 6.07413 102.52966 33874 ft 463 kts 231°
2026-04-26 07:48 6.03285 102.47937 33868 ft 463 kts 231°
2026-04-26 07:48 5.99183 102.42950 33865 ft 463 kts 231°
2026-04-26 07:49 5.95079 102.37954 33868 ft 464 kts 231°
2026-04-26 07:49 5.90972 102.32960 33874 ft 464 kts 231°
2026-04-26 07:50 5.84803 102.25457 33877 ft 464 kts 231°
2026-04-26 07:50 5.80691 102.20460 33876 ft 464 kts 231°
2026-04-26 07:51 5.76581 102.15460 33877 ft 465 kts 231°
2026-04-26 07:51 5.72463 102.10456 33875 ft 465 kts 231°
2026-04-26 07:52 5.68345 102.05456 33874 ft 464 kts 231°
2026-04-26 07:52 5.64928 102.01301 33876 ft 464 kts 231°
2026-04-26 07:53 5.60934 101.96214 33872 ft 463 kts 239°
2026-04-26 07:53 5.58420 101.90276 33871 ft 460 kts 258°
2026-04-26 07:54 5.57254 101.83985 33863 ft 459 kts 261°
2026-04-26 07:54 5.56088 101.77681 33860 ft 459 kts 260°
2026-04-26 07:55 5.54897 101.71373 33864 ft 461 kts 260°
2026-04-26 07:55 5.54301 101.68211 33623 ft 462 kts 260°
2026-04-26 07:55 5.53706 101.65018 32692 ft 469 kts 260°
2026-04-26 07:56 5.53111 101.61793 32022 ft 470 kts 261°
2026-04-26 07:56 5.52519 101.58579 31510 ft 467 kts 261°
2026-04-26 07:56 5.51933 101.55388 30978 ft 463 kts 261°
2026-04-26 07:56 5.51350 101.52217 30451 ft 460 kts 261°
2026-04-26 07:57 5.50771 101.49069 29926 ft 457 kts 261°
2026-04-26 07:57 5.50195 101.45943 29413 ft 454 kts 261°
2026-04-26 07:57 5.49622 101.42839 28903 ft 451 kts 261°
2026-04-26 07:57 5.49054 101.39764 28401 ft 447 kts 260°
2026-04-26 07:58 5.48489 101.36709 27919 ft 444 kts 260°
2026-04-26 07:58 5.47930 101.33680 27431 ft 439 kts 260°
2026-04-26 07:58 5.47372 101.30674 26961 ft 436 kts 260°
2026-04-26 07:58 5.46820 101.27694 26500 ft 432 kts 260°
2026-04-26 07:59 5.46274 101.24747 26045 ft 429 kts 260°
2026-04-26 07:59 5.45734 101.21816 25596 ft 425 kts 260°
2026-04-26 07:59 5.45197 101.18914 25151 ft 422 kts 260°
2026-04-26 07:59 5.44664 101.16025 24704 ft 420 kts 260°
2026-04-26 08:00 5.44131 101.13149 24255 ft 418 kts 259°
2026-04-26 08:00 5.43594 101.10291 23805 ft 416 kts 259°
2026-04-26 08:00 5.43060 101.07441 23351 ft 413 kts 259°
2026-04-26 08:00 5.42540 101.04649 22741 ft 403 kts 259°
2026-04-26 08:01 5.42026 101.01868 21461 ft 407 kts 259°
2026-04-26 08:01 5.41511 100.99079 20367 ft 405 kts 259°
2026-04-26 08:01 5.40993 100.96280 19333 ft 400 kts 259°
2026-04-26 08:01 5.40486 100.93547 18313 ft 395 kts 259°
2026-04-26 08:02 5.39986 100.90853 17317 ft 391 kts 259°
2026-04-26 08:02 5.39500 100.88239 16914 ft 369 kts 259°
2026-04-26 08:02 5.39042 100.85769 16395 ft 354 kts 259°
2026-04-26 08:02 5.38599 100.83363 15677 ft 347 kts 259°
2026-04-26 08:03 5.38161 100.81003 14898 ft 342 kts 259°
2026-04-26 08:03 5.37733 100.78675 14137 ft 337 kts 261°
2026-04-26 08:03 5.37679 100.76353 13314 ft 331 kts 279°
2026-04-26 08:03 5.38165 100.74112 12530 ft 327 kts 284°
2026-04-26 08:04 5.38688 100.71903 11759 ft 324 kts 284°
2026-04-26 08:04 5.39199 100.69716 11006 ft 320 kts 284°
2026-04-26 08:04 5.39701 100.67561 10269 ft 315 kts 284°
2026-04-26 08:04 5.40196 100.65437 9548 ft 311 kts 284°
2026-04-26 08:05 5.40683 100.63341 8834 ft 306 kts 283°
2026-04-26 08:05 5.41163 100.61273 8121 ft 302 kts 283°
2026-04-26 08:05 5.41634 100.59239 7408 ft 298 kts 283°
2026-04-26 08:05 5.42097 100.57243 6695 ft 294 kts 283°
2026-04-26 08:06 5.42560 100.55263 6178 ft 283 kts 283°
2026-04-26 08:06 5.43090 100.53566 5659 ft 275 kts 292°
2026-04-26 08:06 5.43836 100.51827 5110 ft 267 kts 301°
2026-04-26 08:06 5.45007 100.50433 4594 ft 257 kts 317°
2026-04-26 08:07 5.46252 100.49199 4089 ft 247 kts 308°
2026-04-26 08:07 5.47011 100.47704 3607 ft 238 kts 283°
2026-04-26 08:07 5.47131 100.46087 3451 ft 232 kts 270°
2026-04-26 08:07 5.47015 100.44479 3323 ft 231 kts 256°
2026-04-26 08:08 5.46376 100.43007 3202 ft 230 kts 235°
2026-04-26 08:08 5.45283 100.41851 3087 ft 230 kts 222°
2026-04-26 08:08 5.44126 100.40797 2936 ft 219 kts 222°
2026-04-26 08:08 5.43036 100.39794 2824 ft 204 kts 222°
2026-04-26 08:09 5.42008 100.38849 2699 ft 199 kts 221°
2026-04-26 08:09 5.41013 100.37936 2458 ft 187 kts 222°
2026-04-26 08:09 5.40079 100.37083 2260 ft 174 kts 221°
2026-04-26 08:09 5.39185 100.36274 2040 ft 170 kts 221°
2026-04-26 08:10 5.38314 100.35490 1830 ft 167 kts 221°
2026-04-26 08:10 5.37453 100.34712 1631 ft 166 kts 221°
2026-04-26 08:10 5.36636 100.33972 1442 ft 155 kts 221°
2026-04-26 08:10 5.35845 100.33255 1248 ft 148 kts 221°
2026-04-26 08:11 5.35090 100.32572 1065 ft 145 kts 222°
2026-04-26 08:11 5.34345 100.31897 893 ft 144 kts 222°
2026-04-26 08:11 5.33593 100.31221 722 ft 144 kts 221°
2026-04-26 08:11 5.33037 100.30725 586 ft 144 kts 220°
2026-04-26 08:12 5.32301 100.30038 393 ft 146 kts 221°
2026-04-26 08:12 5.31554 100.29338 216 ft 147 kts 221°
2026-04-26 08:12 5.30796 100.28661 48 ft 140 kts 221°
2026-04-26 08:12 5.30154 100.28083 25 ft 102 kts 222°
2026-04-26 08:13 5.29754 100.27720 24 ft 52 kts 221°
2026-04-26 08:13 5.29504 100.27493 23 ft 46 kts 222°
2026-04-26 08:13 5.29283 100.27294 24 ft 37 kts 222°
2026-04-26 08:13 5.29141 100.27164 25 ft 22 kts 223°
2026-04-26 08:14 5.29067 100.27095 26 ft 12 kts 228°
2026-04-26 08:14 5.29087 100.27022 25 ft 13 kts 312°
2026-04-26 08:14 5.29153 100.26950 24 ft 15 kts 312°
2026-04-26 08:14 5.29222 100.26873 23 ft 11 kts 311°
2026-04-26 08:15 5.29260 100.26818 23 ft 10 kts 284°
2026-04-26 08:15 5.29229 100.26766 23 ft 9 kts 222°
2026-04-26 08:15 5.29179 100.26721 23 ft 10 kts 221°
2026-04-26 08:15 5.29123 100.26670 23 ft 12 kts 221°
2026-04-26 08:16 5.29063 100.26617 25 ft 7 kts 221°
2026-04-26 08:16 5.29032 100.26583 23 ft 6 kts 254°
2026-04-26 08:16 5.29057 100.26550 23 ft 6 kts 333°
2026-04-26 08:16 5.29083 100.26535 23 ft 2 kts 324°
2026-04-26 08:17 5.29090 100.26530 23 ft 0 kts 324°